Elefsis, Greece

3:49 AM EEST on May 23, 2017 (GMT +0300)
Elefsis Air Base

Weather History for LGEL - October, 2013

Change the Weather History Date:

Saturday, October 12, 2013

  Actual Average Record
Temperature  
Mean Temperature 73 °F -  
Max Temperature 86 °F 68 °F 86 °F (2013)
Min Temperature 60 °F 54 °F 55 °F (1999)
Cooling Degree Days 8    
Growing Degree Days 23 (Base 50)    
Moisture  
Dew Point 61 °F    
Average Humidity 67    
Maximum Humidity 88    
Minimum Humidity 35    
Precipitation  
Precipitation 0.00 in - - ()
Sea Level Pressure  
Sea Level Pressure 30.16 in    
Wind  
Wind Speed 1 mph ()    
Max Wind Speed 7 mph    
Max Gust Speed -    
Visibility 6.2 miles    
Events      
Averages and records for this station are not official NWS values.
T = Trace of Precipitation, MM = Missing Value Source: Averaged Metar Reports

Daily Weather History Graph

Daily Weather History Graph

Search for Another Location

Airport or City:

Trip Planner

Search our weather history database for the weather conditions in past years. The results will help you decide how hot, cold, wet, or windy it might be!

Date:

Astronomy

Oct. 12, 2013 Rise Set
Actual Time 7:31 AM EEST 6:52 PM EEST
Civil Twilight 7:05 AM EEST 7:18 PM EEST
Nautical Twilight 6:34 AM EEST 7:49 PM EEST
Astronomical Twilight 6:03 AM EEST 8:19 PM EEST
Moon 2:42 PM EEST (10/12) 12:20 AM EEST (10/12)
Length of Visible Light 12h 13m
Length of Day
11h 20m
First Quarter, 55% of the Moon is Illuminated
Oct 12
First Quarter
Oct 19
Full
Oct 27
Last Quarter
Nov 3
New
Nov 10
First Quarter

Hourly Weather History & Observations

Time (EEST) Temp. Heat Index Dew Point Humidity Pressure Visibility Wind Dir Wind Speed Gust Speed Precip Events Conditions
12:50 AM 66.2 °F - 59.0 °F 78% 30.18 in - Calm Calm - N/A   Clear
1:50 AM 64.4 °F - 59.0 °F 83% 30.18 in - Calm Calm - N/A   Clear
2:50 AM 64.4 °F - 59.0 °F 83% 30.18 in - Calm Calm - N/A   Clear
3:50 AM 64.4 °F - 59.0 °F 83% 30.15 in - Calm Calm - N/A   Clear
4:50 AM 62.6 °F - 57.2 °F 82% 30.15 in - Calm Calm - N/A   Clear
5:50 AM 62.6 °F - 57.2 °F 82% 30.15 in - Calm Calm - N/A   Clear
6:20 AM 62.6 °F - 57.2 °F 82% 30.15 in - Calm Calm - N/A   Clear
6:50 AM 62.6 °F - 57.2 °F 82% 30.15 in - Calm Calm - N/A   Clear
7:20 AM 60.8 °F - 57.2 °F 88% 30.15 in - Calm Calm - N/A   Clear
7:50 AM 62.6 °F - 57.2 °F 82% 30.18 in - Calm Calm - N/A   Clear
8:20 AM 64.4 °F - 57.2 °F 77% 30.18 in 6.2 mi Calm Calm - N/A   Partly Cloudy
8:50 AM 66.2 °F - 59.0 °F 78% 30.18 in 6.2 mi Calm Calm - N/A   Scattered Clouds
9:20 AM 71.6 °F - 59.0 °F 64% 30.18 in 6.2 mi Calm Calm - N/A   Scattered Clouds
9:50 AM 75.2 °F - 59.0 °F 57% 30.21 in 6.2 mi Calm Calm - N/A   Scattered Clouds
10:50 AM 77.0 °F - 60.8 °F 57% 30.21 in 6.2 mi Calm Calm - N/A   Partly Cloudy
11:20 AM 78.8 °F - 59.0 °F 51% 30.21 in 6.2 mi Calm Calm - N/A   Partly Cloudy
11:50 AM 78.8 °F - 60.8 °F 54% 30.18 in - Calm Calm - N/A   Clear
12:50 PM 80.6 °F 81.5 °F 60.8 °F 51% 30.18 in - Calm Calm - N/A   Clear
1:20 PM 80.6 °F 81.8 °F 62.6 °F 54% 30.18 in - SW 6.9 mph - N/A   Clear
2:20 PM 82.4 °F 82.9 °F 60.8 °F 48% 30.15 in - SW 4.6 mph - N/A   Clear
2:50 PM 86.0 °F 85.4 °F 59.0 °F 40% 30.15 in 6.2 mi South 5.8 mph - N/A   Partly Cloudy
3:20 PM 86.0 °F 85.4 °F 59.0 °F 40% 30.15 in 6.2 mi South 5.8 mph - N/A   Partly Cloudy
3:50 PM 86.0 °F 85.4 °F 59.0 °F 40% 30.12 in 6.2 mi SSE 4.6 mph - N/A   Partly Cloudy
4:20 PM 86.0 °F 85.4 °F 59.0 °F 40% 30.12 in 6.2 mi SSE 4.6 mph - N/A   Partly Cloudy
4:50 PM 86.0 °F 84.5 °F 55.4 °F 35% 30.12 in 6.2 mi SSE 4.6 mph - N/A   Partly Cloudy
5:20 PM 86.0 °F 84.9 °F 57.2 °F 37% 30.12 in 6.2 mi Calm Calm - N/A   Partly Cloudy
5:50 PM 84.2 °F 83.8 °F 59.0 °F 42% 30.12 in 6.2 mi Calm Calm - N/A   Partly Cloudy
6:20 PM 77.0 °F - 66.2 °F 69% 30.12 in 6.2 mi South 5.8 mph - N/A   Partly Cloudy
6:50 PM 75.2 °F - 66.2 °F 73% 30.15 in 6.2 mi South 4.6 mph - N/A   Partly Cloudy
7:20 PM 75.2 °F - 66.2 °F 73% 30.15 in 6.2 mi South 4.6 mph - N/A   Partly Cloudy
7:50 PM 73.4 °F - 66.2 °F 78% 30.15 in - South 4.6 mph - N/A   Clear
8:20 PM 73.4 °F - 66.2 °F 78% 30.15 in - South 4.6 mph - N/A   Clear
8:50 PM 71.6 °F - 66.2 °F 83% 30.15 in - Calm Calm - N/A   Clear
9:20 PM 71.6 °F - 66.2 °F 83% 30.15 in - Calm Calm - N/A   Clear
9:50 PM 71.6 °F - 64.4 °F 78% 30.18 in - Calm Calm - N/A   Clear
10:50 PM 69.8 °F - 64.4 °F 83% 30.18 in - Calm Calm - N/A   Clear
11:20 PM 68.0 °F - 64.4 °F 88% 30.18 in - Calm Calm - N/A   Clear
11:50 PM 68.0 °F - 62.6 °F 83% 30.15 in - Calm Calm - N/A   Clear